Location: Hopville
(44.8032°N, 123.1329°W)
Time: 16:11:58
(UTC+00:00)

Cosmos 2219 Rocket - Pass Details

Date: 24 January 2021
Orbit: 828 x 846 km, 71.0° (Epoch: 01 March)

Event Time Altitude Azimuth Distance (km) Brightness Sun altitude
Exits shadow 14:39:11 11° 313° (NW) 2,399 4.0 -10.8°
Maximum altitude 14:40:11 11° 323° (NW) 2,368 4.1 -10.7°
Drops below altitude 10° 14:41:41 10° 339° (NNW) 2,442 4.3 -10.4°
Sets 14:46:23 0° 15° (NNE) 3,382 5.3 -9.6°
